FW0984 Weather Reports


Display with metric or nautical units.
time (UTC)temp
F
wind
direction
speed
MPH
gust
MPH
rain 1hr
in
rain 24hr
in
rain mn
in
humidity
%
barometer
mb
20260905200058 79 144 0.0 2.0 0.28 0.28 0.28 92 1012.3
20260905194553 76 137 0.0 2.0 0.28 0.28 0.28 93 1012.5
20260905193050 75 126 1.0 2.0 0.28 0.28 0.28 90 1013.0
20260905191552 86 86 1.0 5.0 0.00 0.00 0.00 65 1013.1
20260905190150 86 306 1.0 9.0 0.00 0.00 0.00 67 1012.9
20260905143011 77 289 0.0 1.0 0.00 0.00 0.00 79 1013.7
20260905141504 76 281 0.0 2.0 0.00 0.00 0.00 82 1013.9
20260905140059 73 281 0.0 2.0 0.00 0.00 0.00 88 1014.5
20260905134555 71 222 0.0 2.0 0.00 0.00 0.00 91 1014.8
20260905133051 70 222 0.0 2.0 0.00 0.00 0.00 92 1015.2
20260905100025 71 162 7.0 13.0 0.00 0.00 0.00 93 1015.3
20260905094522 70 132 0.0 0.0 0.00 0.00 0.00 96 1013.6
20260905093021 70 132 0.0 0.0 0.00 0.00 0.00 96 1013.4
20260905091520 70 132 0.0 0.0 0.00 0.00 0.00 96 1013.3
20260905090022 70 132 0.0 0.0 0.00 0.00 0.00 96 1013.2
20260905084546 70 132 0.0 0.0 0.00 0.00 0.00 96 1013.2
20260905083020 70 132 0.0 0.0 0.00 0.00 0.00 96 1013.5
20260905081512 70 132 0.0 0.0 0.00 0.00 0.00 96 1013.5
20260905080011 70 132 0.0 0.0 0.00 0.00 0.00 96 1013.4
20260905074510 70 132 0.0 0.0 0.00 0.00 0.00 96 1013.3
20260905073015 70 132 0.0 0.0 0.00 0.00 0.00 95 1012.9
20260905071507 70 132 0.0 0.0 0.00 0.00 0.00 95 1013.0
20260905070007 70 132 0.0 0.0 0.00 0.00 0.00 95 1012.9
20260905064503 70 132 0.0 0.0 0.00 0.00 0.00 95 1013.2
20260905063001 71 132 0.0 0.0 0.00 0.00 0.00 94 1013.5
20260905061617 71 132 0.0 0.0 0.00 0.00 0.00 94 1013.7
20260905060058 71 132 0.0 0.0 0.00 0.00 0.00 95 1013.9
20260905054557 71 132 0.0 0.0 0.00 0.00 0.00 95 1014.1
20260905053109 71 132 0.0 0.0 0.00 0.00 0.00 95 1014.2
20260905051555 71 132 0.0 0.0 0.00 0.00 0.00 95 1014.4
20260905050053 71 132 0.0 0.0 0.00 0.00 0.00 95 1014.5
20260905044552 71 132 0.0 0.0 0.00 0.00 0.00 95 1014.6
20260905043050 71 132 0.0 0.0 0.00 0.00 0.00 95 1014.6
20260905041549 71 132 0.0 0.0 0.00 0.00 0.00 95 1014.6
20260905040047 71 132 0.0 0.0 0.00 0.00 0.00 95 1014.5
20260905034550 72 132 0.0 0.0 0.00 0.00 0.00 95 1014.6
20260905033046 72 132 0.0 0.0 0.00 0.00 0.00 94 1014.6
20260905031550 72 132 0.0 0.0 0.00 0.00 0.00 94 1014.6
20260905030045 72 132 0.0 0.0 0.00 0.00 0.00 93 1014.5
20260905024610 72 132 0.0 0.0 0.00 0.00 0.00 93 1014.5
20260905023045 72 132 0.0 0.0 0.00 0.00 0.00 93 1014.5
20260905021545 73 132 0.0 0.0 0.00 0.00 0.00 92 1014.5
20260905020049 73 132 0.0 0.0 0.00 0.00 0.00 92 1014.5
20260905014545 73 132 0.0 0.0 0.00 0.00 0.00 91 1014.3
20260905013042 74 132 0.0 0.0 0.00 0.00 0.00 90 1013.9
20260905011552 74 132 0.0 0.0 0.00 0.00 0.00 90 1013.7
20260905010043 74 132 0.0 0.0 0.00 0.00 0.00 89 1013.6
20260905004550 75 132 0.0 0.0 0.00 0.00 0.00 88 1013.5
20260905003040 75 132 0.0 0.0 0.00 0.00 0.00 87 1013.5
20260905001540 76 132 0.0 0.0 0.00 0.00 0.00 85 1013.4
20260905000039 76 132 0.0 0.0 0.00 0.00 0.00 86 1013.4
20260904234546 77 131 0.0 0.0 0.00 0.00 0.00 84 1013.5
20260904233052 78 132 0.0 0.0 0.00 0.00 0.00 82 1013.6
20260904231536 78 131 0.0 0.0 0.00 0.00 0.00 81 1013.5
20260904230036 79 113 0.0 0.0 0.00 0.00 0.00 78 1013.5
20260904224544 79 123 0.0 0.0 0.00 0.00 0.00 80 1013.7
20260904223040 79 123 0.0 0.0 0.00 0.00 0.00 79 1013.6
20260904221532 78 267 0.0 0.0 0.00 0.00 0.00 85 1014.1
20260904220034 77 145 0.0 0.0 0.00 0.00 0.00 82 1014.4
20260904214540 78 303 0.0 0.0 0.00 0.00 0.00 79 1014.5
20260904213032 80 92 0.0 6.0 0.00 0.00 0.00 73 1015.3
20260904211529 81 128 1.0 7.0 0.00 0.00 0.00 73 1015.3
20260904210029 83 99 3.0 11.0 0.00 0.00 0.00 68 1014.7
20260904204528 85 170 3.0 14.0 0.00 0.00 0.00 64 1014.6
20260904203027 94 83 1.0 8.0 0.00 0.00 0.00 52 1014.3
20260904201525 94 63 1.0 6.0 0.00 0.00 0.00 52 1014.0